Location: Buckland
(65.9785°N, 161.1281°W)
Time: 15:36:17
(UTC+00:00)

Transit 2A Rocket - Visible Passes

Search period start: 26 November 2020 00:00
Search period end: 06 December 2020 00:00
Orbit: 588 x 914 km, 66.7° (Epoch: 25 November)

Date Brightness Start Highest point End Pass type
(mag) Time Alt. Az. Time Alt. Az. Time Alt. Az.
26 Nov 7.9 12:23:14 10° E 12:23:14 10° E 12:23:14 10° E visible
26 Nov 6.5 14:03:08 32° ESE 14:03:08 32° ESE 14:07:05 10° ENE visible
26 Nov 5.2 15:43:03 51° SW 15:44:25 72° SSE 15:49:39 10° ENE visible
26 Nov 5.0 17:22:58 18° W 17:27:07 83° N 17:32:13 10° E visible
27 Nov 7.2 13:21:54 22° E 13:21:54 22° E 13:24:23 10° ENE visible
27 Nov 5.3 15:01:49 60° SSE 15:01:52 61° SE 15:07:04 10° ENE visible
27 Nov 5.0 16:41:43 31° W 16:44:27 87° NNW 16:49:36 10° E visible
27 Nov 5.0 18:21:45 10° WNW 18:27:15 89° N 18:32:14 10° ESE visible
28 Nov 7.7 12:40:37 14° E 12:40:37 14° E 12:41:34 10° ENE visible
28 Nov 6.1 14:20:32 42° ESE 14:20:32 42° ESE 14:24:28 10° ENE visible
28 Nov 5.0 16:00:27 53° WSW 16:01:49 87° SSE 16:06:59 10° ENE visible
28 Nov 5.0 17:40:21 17° W 17:44:37 84° N 17:49:37 10° E visible
29 Nov 6.9 13:39:14 27° E 13:39:14 27° E 13:41:51 10° ENE visible
29 Nov 5.0 15:19:08 78° SSE 15:19:12 78° SSE 15:24:24 10° ENE visible
29 Nov 4.9 16:59:02 28° W 17:01:56 83° N 17:06:59 10° E visible
29 Nov 5.1 18:39:17 10° WNW 18:44:39 77° SSW 18:49:31 10° ESE visible
30 Nov 7.5 12:57:53 17° ENE 12:57:53 17° ENE 12:59:13 10° ENE visible
30 Nov 5.7 14:37:48 52° E 14:37:48 52° E 14:41:48 10° ENE visible
30 Nov 4.9 16:17:42 48° W 16:19:17 84° N 16:24:22 10° E visible
30 Nov 4.9 17:57:36 15° WNW 18:02:03 86° SSW 18:06:57 10° ESE visible
01 Dec 6.6 13:56:26 31° E 13:56:26 31° E 13:59:13 10° ENE visible
01 Dec 4.8 15:36:20 81° W 15:36:38 88° NNW 15:41:44 10° ENE visible
01 Dec 4.9 17:16:14 25° WNW 17:19:25 87° N 17:24:22 10° ESE visible
01 Dec 5.3 18:56:45 10° WNW 19:01:55 57° SW 19:06:36 10° SE visible
02 Dec 7.3 13:15:04 19° ENE 13:15:04 19° ENE 13:16:37 10° ENE visible
02 Dec 5.4 14:54:58 61° E 14:54:58 61° E 14:59:08 10° ENE visible
02 Dec 4.9 16:34:52 41° W 16:36:46 83° N 16:41:44 10° E visible
02 Dec 5.1 18:14:46 13° WNW 18:19:24 69° SSW 18:24:11 10° SE visible
03 Dec 7.8 12:33:41 12° ENE 12:33:41 12° ENE 12:34:00 10° ENE visible
03 Dec 6.4 14:13:35 36° ENE 14:13:35 36° ENE 14:16:32 10° ENE visible
03 Dec 4.8 15:53:29 69° WNW 15:54:06 83° N 15:59:07 10° E visible
03 Dec 4.9 17:33:22 22° WNW 17:36:50 80° SSW 17:41:40 10° ESE visible
04 Dec 7.1 13:32:11 22° ENE 13:32:11 22° ENE 13:33:57 10° ENE visible
04 Dec 5.2 15:12:05 69° ENE 15:12:05 69° ENE 15:16:29 10° E visible
04 Dec 4.8 16:51:59 36° WNW 16:54:13 89° SSW 16:59:06 10° ESE visible
04 Dec 5.4 18:31:53 11° WNW 18:36:37 49° SW 18:41:10 10° SSE visible
05 Dec 7.7 12:50:47 13° ENE 12:50:47 13° ENE 12:51:21 10° ENE visible
05 Dec 6.1 14:30:41 41° ENE 14:30:41 41° ENE 14:33:52 10° ENE visible
05 Dec 4.8 16:10:35 60° WNW 16:11:34 85° N 16:16:29 10° E visible
05 Dec 5.1 17:50:29 19° WNW 17:54:07 61° SW 17:58:48 10° SE visible
